Location: Lone Wolf Observatory
(41.0360°N, 89.2260°W)
Time: 12:44:22
(UTC-05:00)

Amateur Radio Satellites - All Passes

Search period start: 24 July 2014 12:14
Search period end: 25 July 2014 12:14
Location: Lone Wolf Observatory, 41.0360°N, 89.2260°W

Satellite Date Start Highest point End Downlink Frequencies (MHz)
Time Altitude Azimuth
Oscar 19 24 Jul 12:28:45 12:32:10 18° 63° (ENE) 12:35:36 437.125 CW, 437.150 USB
Sapphire 24 Jul 12:47:47 12:51:32 19° 255° (WSW) 12:55:17 437.095 MHz 1200 baud AX-25 AFSK
RS-15 24 Jul 12:49:26 12:57:13 22° 101° (E) 13:04:51 29.354 - 29.394 USB, Beacon 29.352 USB
FUNcube-1 24 Jul 12:51:50 12:53:39 13° 297° (WNW) 12:55:29 145.950 - 145.970 MHz USB
KITSAT 1 24 Jul 12:53:46 12:55:47 11° 9° (N) 12:57:48 435.175 FM
Oscar 16 24 Jul 12:54:52 12:59:23 33° 68° (ENE) 13:03:56 437.025 USB, Beacon 2401.1428
SO-50 24 Jul 12:59:49 13:02:47 18° 110° (ESE) 13:05:48 436.795 FM
ITAMSAT 1 24 Jul 13:06:06 13:09:48 20° 63° (ENE) 13:13:30 435.822 SSB
Gurwin Techsat 1B 24 Jul 13:20:21 13:21:41 11° 57° (ENE) 13:23:02 435.225 FM
AO-27 24 Jul 13:23:04 13:27:29 29° 66° (ENE) 13:31:54 436.795 MHz FM
AO-Echo 24 Jul 13:23:55 13:28:24 29° 67° (ENE) 13:32:56 ?
JAS-1B 24 Jul 13:25:51 13:33:14 31° 57° (ENE) 13:41:16 435.800 - 435.900 CW/SSB
Uribyol 2 24 Jul 13:25:52 13:30:24 31° 67° (ENE) 13:34:56 436.500 FM
Oscar 19 24 Jul 14:06:03 14:11:03 57° 259° (W) 14:16:06 437.125 CW, 437.150 USB
AO-7 24 Jul 14:10:14 14:14:36 16° 46° (NE) 14:18:57 29.400 - 29.500 MHz
Oscar 16 24 Jul 14:34:17 14:38:43 29° 264° (W) 14:43:11 437.025 USB, Beacon 2401.1428
TMSAT-1 24 Jul 14:34:55 14:39:46 38° 69° (ENE) 14:44:38 436.925 FM
SO-50 24 Jul 14:38:36 14:42:56 50° 307° (NW) 14:47:23 436.795 FM
ITAMSAT 1 24 Jul 14:43:46 14:48:52 54° 259° (W) 14:54:00 435.822 SSB
KITSAT 1 24 Jul 14:48:13 14:54:45 26° 38° (NE) 15:01:14 435.175 FM
Gurwin Techsat 1B 24 Jul 14:55:28 15:00:46 80° 75° (ENE) 15:06:06 435.225 FM
RS-15 24 Jul 14:56:53 15:08:04 89° 301° (WNW) 15:19:04 29.354 - 29.394 USB, Beacon 29.352 USB
AO-27 24 Jul 15:02:04 15:06:51 36° 263° (W) 15:11:39 436.795 MHz FM
AO-Echo 24 Jul 15:02:10 15:07:00 36° 263° (W) 15:11:55 ?
Uribyol 2 24 Jul 15:05:10 15:09:48 32° 263° (W) 15:14:27 436.500 FM
JAS-1B 24 Jul 15:14:19 15:22:46 72° 258° (WSW) 15:32:31 435.800 - 435.900 CW/SSB
Uosat F 24 Jul 15:17:17 15:21:08 23° 64° (ENE) 15:25:00 435.120 FM
UOSAT-12 24 Jul 15:27:12 15:31:27 39° 116° (ESE) 15:35:48 437.025 FM, 437.400 FM
OPAL 24 Jul 15:51:39 15:54:26 15° 93° (E) 15:57:13 ?
AO-7 24 Jul 15:57:34 16:05:48 66° 67° (ENE) 16:14:04 29.400 - 29.500 MHz
Saudisat 1A 24 Jul 16:11:01 16:12:39 12° 37° (NE) 16:14:17 436.775 MHz
TMSAT-1 24 Jul 16:15:18 16:19:45 27° 265° (W) 16:24:13 436.925 FM
Gurwin Techsat 1B 24 Jul 16:39:14 16:41:20 12° 271° (W) 16:43:27 435.225 FM
KITSAT 1 24 Jul 16:43:05 16:51:13 88° 241° (WSW) 16:59:17 435.175 FM
Uosat F 24 Jul 16:54:49 16:59:37 44° 261° (W) 17:04:28 435.120 FM
UOSAT-12 24 Jul 17:07:47 17:11:43 27° 314° (NW) 17:15:43 437.025 FM, 437.400 FM
JAS-1B 24 Jul 17:10:43 17:15:05 15° 279° (W) 17:19:44 435.800 - 435.900 CW/SSB
RS-15 24 Jul 17:12:36 17:22:02 31° 328° (NNW) 17:31:27 29.354 - 29.394 USB, Beacon 29.352 USB
JAS-2 24 Jul 17:17:06 17:23:50 33° 64° (ENE) 17:30:17 435.800 - 435.900 CW/SSB, 435.910 FM
OPAL 24 Jul 17:28:43 17:33:43 65° 289° (WNW) 17:38:46 ?
Hamsat 24 Jul 17:42:23 17:46:17 40° 72° (ENE) 17:50:13 145.90 MHz
Saudisat 1A 24 Jul 17:48:37 17:53:02 73° 56° (NE) 17:57:25 436.775 MHz
AO-7 24 Jul 17:52:15 17:59:05 28° 265° (W) 18:05:59 29.400 - 29.500 MHz
SO-67 24 Jul 18:21:34 18:23:26 14° 67° (ENE) 18:25:18 435.3500 MHz FM
KITSAT 1 24 Jul 18:40:36 18:45:28 18° 259° (W) 18:50:19 435.175 FM
JAS-2 24 Jul 19:00:46 19:08:28 57° 260° (W) 19:15:53 435.800 - 435.900 CW/SSB, 435.910 FM
Hamsat 24 Jul 19:19:50 19:22:27 16° 268° (W) 19:25:05 145.90 MHz
Saudisat 1A 24 Jul 19:30:35 19:32:00 11° 252° (WSW) 19:33:24 436.775 MHz
RS-15 24 Jul 19:31:53 19:39:20 20° 3° (N) 19:46:50 29.354 - 29.394 USB, Beacon 29.352 USB
STRAND 1 24 Jul 19:43:53 19:49:00 73° 103° (ESE) 19:54:05 ?
SO-67 24 Jul 19:53:04 19:56:13 33° 263° (W) 19:59:24 435.3500 MHz FM
HO-68 24 Jul 20:01:42 20:07:52 32° 61° (ENE) 20:14:02 435.675 MHz FM
Oscar 11 24 Jul 20:29:55 20:30:11 10° 61° (ENE) 20:30:27 145.825 FM, Beacon 2401.500 USB
UKube-1 24 Jul 21:11:00 21:15:18 61° 73° (ENE) 21:19:38 145.840 MHz, 145.915 MHz
STRAND 1 24 Jul 21:24:49 21:27:34 15° 300° (WNW) 21:30:19 ?
SO-50 24 Jul 21:30:18 21:33:52 21° 43° (NE) 21:37:28 436.795 FM
RS-15 24 Jul 21:46:18 21:56:14 37° 37° (NE) 22:06:22 29.354 - 29.394 USB, Beacon 29.352 USB
HO-68 24 Jul 21:48:20 21:55:16 51° 259° (W) 22:02:14 435.675 MHz FM
Oscar 11 24 Jul 22:01:25 22:05:43 79° 258° (WSW) 22:10:03 145.825 FM, Beacon 2401.500 USB
FUNcube-1 24 Jul 22:09:53 22:14:04 45° 73° (ENE) 22:18:10 145.950 - 145.970 MHz USB
MaSat-1 24 Jul 22:34:39 22:38:32 81° 114° (ESE) 22:43:08 437.345 MHz
UKube-1 24 Jul 22:50:17 22:51:54 12° 269° (W) 22:53:31 145.840 MHz, 145.915 MHz
SO-50 24 Jul 23:10:07 23:14:48 59° 241° (WSW) 23:19:32 436.795 FM
FUNcube-1 24 Jul 23:48:02 23:50:40 16° 268° (W) 23:53:17 145.950 - 145.970 MHz USB
UOSAT-12 24 Jul 23:56:46 00:01:08 35° 49° (NE) 00:05:26 437.025 FM, 437.400 FM
RS-15 24 Jul 23:58:38 00:09:40 77° 242° (WSW) 00:21:06 29.354 - 29.394 USB, Beacon 29.352 USB
Lituanica SAT-1 25 Jul 00:03:05 00:05:10 84° 146° (SE) 00:07:16 437.275 MHz beacon
MaSat-1 25 Jul 00:14:40 00:16:43 13° 316° (NW) 00:18:54 437.345 MHz
PCSat 25 Jul 00:38:15 00:41:13 15° 104° (ESE) 00:44:12 145.825 MHz
ISS 25 Jul 01:06:43 01:09:54 43° 138° (SE) 01:13:06 145.800 FM
Oscar 16 25 Jul 01:08:58 01:10:22 11° 89° (E) 01:11:45 437.025 USB, Beacon 2401.1428
UOSAT-12 25 Jul 01:37:08 01:41:11 29° 247° (WSW) 01:45:10 437.025 FM, 437.400 FM
Lituanica SAT-1 25 Jul 01:37:31 01:38:06 11° 341° (NNW) 01:38:41 437.275 MHz beacon
Sapphire 25 Jul 01:44:49 01:50:04 55° 114° (ESE) 01:55:22 437.095 MHz 1200 baud AX-25 AFSK
AO-40 25 Jul 01:46:23 03:35:01 17° 118° (ESE) 04:37:19 Beacon 2401.320
RS-15 25 Jul 02:13:54 02:20:09 17° 262° (W) 02:26:32 29.354 - 29.394 USB, Beacon 29.352 USB
Oscar 19 25 Jul 02:17:38 02:22:41 52° 100° (E) 02:27:42 437.125 CW, 437.150 USB
PCSat 25 Jul 02:18:34 02:23:58 73° 300° (WNW) 02:29:24 145.825 MHz
ISS 25 Jul 02:43:44 02:46:41 28° 336° (NNW) 02:49:38 145.800 FM
Oscar 16 25 Jul 02:45:09 02:50:20 84° 285° (WNW) 02:55:30 437.025 USB, Beacon 2401.1428
TMSAT-1 25 Jul 02:52:10 02:55:05 15° 90° (E) 02:57:59 436.925 FM
ITAMSAT 1 25 Jul 02:56:44 03:01:49 55° 101° (E) 03:06:52 435.822 SSB
JAS-1B 25 Jul 03:01:17 03:10:21 45° 95° (E) 03:18:13 435.800 - 435.900 CW/SSB
OPAL 25 Jul 03:06:02 03:10:08 27° 64° (ENE) 03:14:15 ?
AO-Echo 25 Jul 03:09:20 03:14:30 78° 103° (ESE) 03:19:28 ?
Gurwin Techsat 1B 25 Jul 03:12:13 03:16:57 32° 96° (E) 03:21:39 435.225 FM
AO-27 25 Jul 03:14:41 03:19:54 83° 104° (ESE) 03:25:05 436.795 MHz FM
Uribyol 2 25 Jul 03:17:18 03:22:30 90° 285° (WNW) 03:27:39 436.500 FM
Sapphire 25 Jul 03:29:30 03:33:50 24° 313° (NW) 03:38:12 437.095 MHz 1200 baud AX-25 AFSK
Oscar 19 25 Jul 03:57:56 04:01:38 20° 297° (WNW) 04:05:20 437.125 CW, 437.150 USB
AO-7 25 Jul 04:00:48 04:06:34 20° 91° (E) 04:12:17 29.400 - 29.500 MHz
PCSat 25 Jul 04:05:37 04:08:22 14° 321° (NW) 04:11:07 145.825 MHz
ISS 25 Jul 04:22:24 04:24:13 14° 356° (N) 04:26:02 145.800 FM
Oscar 16 25 Jul 04:27:28 04:28:52 11° 302° (WNW) 04:30:15 437.025 USB, Beacon 2401.1428
TMSAT-1 25 Jul 04:30:13 04:35:29 68° 287° (WNW) 04:40:43 436.925 FM
ITAMSAT 1 25 Jul 04:37:17 04:40:53 19° 297° (WNW) 04:44:27 435.822 SSB
OPAL 25 Jul 04:44:21 04:48:52 35° 260° (W) 04:53:24 ?
Lituanica SAT-1 25 Jul 04:44:23 04:45:02 11° 20° (NNE) 04:45:42 437.275 MHz beacon
AO-Echo 25 Jul 04:50:03 04:52:33 14° 300° (WNW) 04:55:00 ?
JAS-1B 25 Jul 04:51:44 05:00:46 47° 296° (WNW) 05:08:46 435.800 - 435.900 CW/SSB
Gurwin Techsat 1B 25 Jul 04:52:11 04:56:52 32° 293° (WNW) 05:01:31 435.225 FM
AO-27 25 Jul 04:56:19 04:58:42 13° 301° (WNW) 05:01:05 436.795 MHz FM
Uribyol 2 25 Jul 04:59:19 05:01:11 12° 302° (WNW) 05:03:04 436.500 FM
Uosat F 25 Jul 05:02:25 05:07:22 57° 101° (E) 05:12:17 435.120 FM
KITSAT 1 25 Jul 05:22:19 05:24:40 11° 98° (E) 05:27:01 435.175 FM
STRAND 1 25 Jul 05:23:51 05:26:18 14° 60° (ENE) 05:28:46 ?
Oscar 10/S400 25 Jul 05:47:11 07:06:33 38° 239° (WSW) 11:39:06 145.825 - 145.975 CW/USB, Beacon 145.810 USB
AO-7 25 Jul 05:51:51 06:00:13 83° 290° (WNW) 06:08:31 29.400 - 29.500 MHz
ISS 25 Jul 05:59:28 06:01:54 18° 16° (NNE) 06:04:19 145.800 FM
JAS-2 25 Jul 06:13:01 06:17:26 21° 89° (E) 06:21:32 435.800 - 435.900 CW/SSB, 435.910 FM
Lituanica SAT-1 25 Jul 06:15:51 06:17:56 79° 217° (SW) 06:20:00 437.275 MHz beacon
Uosat F 25 Jul 06:42:23 06:45:41 18° 298° (WNW) 06:48:59 435.120 FM
JAS-1B 25 Jul 06:45:41 06:48:40 12° 318° (NW) 06:51:35 435.800 - 435.900 CW/SSB
MaSat-1 25 Jul 06:53:17 06:57:42 26° 52° (NE) 07:02:00 437.345 MHz
STRAND 1 25 Jul 06:59:39 07:04:48 80° 257° (WSW) 07:09:59 ?
Hamsat 25 Jul 07:03:38 07:07:57 88° 103° (ESE) 07:12:16 145.90 MHz
KITSAT 1 25 Jul 07:10:33 07:18:33 68° 115° (ESE) 07:26:34 435.175 FM
SO-67 25 Jul 07:17:45 07:19:59 16° 93° (E) 07:22:12 435.3500 MHz FM
ISS 25 Jul 07:35:42 07:39:03 73° 35° (NE) 07:42:22 145.800 FM
AO-7 25 Jul 07:46:18 07:51:48 20° 310° (NW) 07:57:18 29.400 - 29.500 MHz
Saudisat 1A 25 Jul 07:56:12 07:59:20 19° 111° (ESE) 08:02:29 436.775 MHz
JAS-2 25 Jul 07:57:01 08:03:03 53° 290° (WNW) 08:08:25 435.800 - 435.900 CW/SSB, 435.910 FM
PANSAT 25 Jul 08:08:44 08:10:20 12° 176° (S) 08:11:55 not established
MaSat-1 25 Jul 08:30:12 08:35:21 49° 251° (WSW) 08:40:13 437.345 MHz
SO-67 25 Jul 08:50:06 08:53:05 27° 289° (WNW) 08:56:04 435.3500 MHz FM
UKube-1 25 Jul 09:02:38 09:03:11 10° 90° (E) 09:03:44 145.840 MHz, 145.915 MHz
KITSAT 1 25 Jul 09:07:27 09:14:33 32° 317° (NW) 09:21:40 435.175 FM
ISS 25 Jul 09:13:43 09:15:19 13° 230° (SW) 09:16:53 145.800 FM
HO-68 25 Jul 09:16:17 09:22:33 32° 96° (E) 09:28:45 435.675 MHz FM
PCSat 25 Jul 09:24:36 09:27:53 16° 41° (NE) 09:31:10 145.825 MHz
Saudisat 1A 25 Jul 09:34:21 09:38:36 45° 308° (NW) 09:42:52 436.775 MHz
PANSAT 25 Jul 09:48:40 09:49:44 11° 189° (S) 09:50:49 not established
Oscar 11 25 Jul 09:50:06 09:53:10 19° 93° (E) 09:56:14 145.825 FM, Beacon 2401.500 USB
Sapphire 25 Jul 10:32:55 10:38:06 44° 54° (NE) 10:43:15 437.095 MHz 1200 baud AX-25 AFSK
UKube-1 25 Jul 10:35:30 10:39:51 69° 286° (WNW) 10:44:10 145.840 MHz, 145.915 MHz
HO-68 25 Jul 11:03:37 11:10:25 49° 294° (WNW) 11:17:12 435.675 MHz FM
PCSat 25 Jul 11:06:39 11:12:07 86° 61° (ENE) 11:17:32 145.825 MHz
KITSAT 1 25 Jul 11:10:03 11:13:04 12° 345° (NNW) 11:16:04 435.175 FM
Oscar 11 25 Jul 11:25:29 11:29:29 37° 289° (WNW) 11:33:29 145.825 FM, Beacon 2401.500 USB
FUNcube-1 25 Jul 11:35:13 11:39:23 80° 284° (WNW) 11:43:34 145.950 - 145.970 MHz USB
